KAL389 WMKK-VVTS

Flight info

Callsign KAL389
Flight time 1h 28m
Altitude 33000
Route PIBOS1D PIBOS R208 IGARI/K0904F330 M765 BITOD L637 ANBOV ANBOV5A
Aircraft B77L/H-SDE1E2E3FGHIJ2J3J4J5M1RWXY/LB1D1

Departure

Time 2026-05-06 06:35
Airport Kuala Lumpur International Airport (WMKK)

Arrival

Time 2026-05-06 08:03
Airport Tan Son Nhat International Airport (VVTS)
Time Latitude Longitude Altitude Speed Heading
2026-05-06 06:06 2.74071 101.71771 77 ft 0 kts 146°
2026-05-06 06:29 2.74085 101.71762 20 ft 4 kts 144°
2026-05-06 06:29 2.74107 101.71745 43 ft 4 kts 139°
2026-05-06 06:30 2.74126 101.71727 66 ft 4 kts 131°
2026-05-06 06:30 2.74142 101.71706 66 ft 4 kts 114°
2026-05-06 06:30 2.74148 101.71684 66 ft 4 kts 77°
2026-05-06 06:30 2.74145 101.71675 66 ft 1 kts 56°
2026-05-06 06:32 2.74168 101.71709 66 ft 17 kts 56°
2026-05-06 06:33 2.74270 101.71857 84 ft 29 kts 55°
2026-05-06 06:33 2.74350 101.71972 85 ft 12 kts 56°
2026-05-06 06:33 2.74397 101.72043 85 ft 12 kts 56°
2026-05-06 06:33 2.74454 101.72128 87 ft 22 kts 56°
2026-05-06 06:34 2.74622 101.72115 87 ft 33 kts 324°
2026-05-06 06:34 2.74835 101.72158 85 ft 35 kts
2026-05-06 06:34 2.75182 101.71961 84 ft 100 kts 325°
2026-05-06 06:34 2.76035 101.71401 69 ft 192 kts 324°
2026-05-06 06:35 2.77203 101.70561 734 ft 212 kts 325°
2026-05-06 06:35 2.78465 101.69724 1691 ft 220 kts 326°
2026-05-06 06:35 2.79804 101.68880 2169 ft 238 kts 332°
2026-05-06 06:35 2.81439 101.68394 2508 ft 252 kts 346°
2026-05-06 06:36 2.83132 101.67849 3161 ft 257 kts 340°
2026-05-06 06:36 2.84814 101.67216 3921 ft 260 kts 339°
2026-05-06 06:36 2.86520 101.66578 4619 ft 263 kts 340°
2026-05-06 06:36 2.88249 101.65943 5341 ft 266 kts 340°
2026-05-06 06:37 2.90000 101.65320 6030 ft 266 kts 344°
2026-05-06 06:37 2.91857 101.65235 6531 ft 274 kts 15°
2026-05-06 06:37 2.93614 101.66008 7025 ft 282 kts 30°
2026-05-06 06:37 2.95336 101.67009 7603 ft 288 kts 31°
2026-05-06 06:38 2.97077 101.68035 8301 ft 292 kts 31°
2026-05-06 06:38 2.98831 101.69071 8993 ft 295 kts 31°
2026-05-06 06:38 3.00613 101.70120 9633 ft 299 kts 31°
2026-05-06 06:38 3.02416 101.71177 10288 ft 303 kts 31°
2026-05-06 06:39 3.04290 101.72273 10585 ft 323 kts 31°
2026-05-06 06:39 3.06274 101.73430 10768 ft 345 kts 31°
2026-05-06 06:39 3.08418 101.74679 10951 ft 368 kts 31°
2026-05-06 06:39 3.10682 101.75993 11322 ft 383 kts 31°
2026-05-06 06:40 3.12250 101.76903 11752 ft 388 kts 31°
2026-05-06 06:40 3.15369 101.78717 12762 ft 392 kts 32°
2026-05-06 06:40 3.17539 101.80371 13314 ft 397 kts 49°
2026-05-06 06:40 3.19127 101.82636 13843 ft 400 kts 58°
2026-05-06 06:41 3.20637 101.84991 14560 ft 403 kts 57°
2026-05-06 06:41 3.21677 101.86574 15093 ft 404 kts 57°
2026-05-06 06:41 3.23759 101.89683 15979 ft 409 kts 57°
2026-05-06 06:41 3.24823 101.91257 16332 ft 413 kts 57°
2026-05-06 06:42 3.26470 101.93687 16844 ft 419 kts 57°
2026-05-06 06:42 3.28127 101.96045 17450 ft 421 kts 54°
2026-05-06 06:42 3.29894 101.98394 17998 ft 424 kts 53°
2026-05-06 06:42 3.31682 102.00752 18539 ft 427 kts 54°
2026-05-06 06:43 3.33469 102.03140 19122 ft 429 kts 54°
2026-05-06 06:43 3.35365 102.05444 19646 ft 431 kts 45°
2026-05-06 06:43 3.37821 102.07189 20081 ft 438 kts 29°
2026-05-06 06:43 3.40535 102.08602 20595 ft 441 kts 30°
2026-05-06 06:44 3.43225 102.10084 21091 ft 444 kts 31°
2026-05-06 06:44 3.45929 102.11606 21568 ft 447 kts 30°
2026-05-06 06:44 3.48694 102.13055 22029 ft 451 kts 28°
2026-05-06 06:44 3.51506 102.14474 22480 ft 454 kts 28°
2026-05-06 06:45 3.54344 102.15891 22924 ft 457 kts 28°
2026-05-06 06:45 3.57197 102.17320 23337 ft 461 kts 28°
2026-05-06 06:45 3.60069 102.18770 23742 ft 464 kts 28°
2026-05-06 06:45 3.62958 102.20237 24088 ft 468 kts 28°
2026-05-06 06:46 3.65873 102.21724 24418 ft 472 kts 28°
2026-05-06 06:46 3.68799 102.23221 24842 ft 473 kts 29°
2026-05-06 06:46 3.71696 102.24705 25247 ft 475 kts 29°
2026-05-06 06:46 3.74644 102.26217 25588 ft 478 kts 29°
2026-05-06 06:47 3.77614 102.27740 25890 ft 482 kts 29°
2026-05-06 06:47 3.80610 102.29276 26205 ft 485 kts 29°
2026-05-06 06:47 3.83620 102.30819 26513 ft 488 kts 28°
2026-05-06 06:47 3.86653 102.32371 26780 ft 491 kts 28°
2026-05-06 06:48 3.89697 102.33930 27140 ft 492 kts 28°
2026-05-06 06:48 3.92748 102.35494 27479 ft 493 kts 28°
2026-05-06 06:48 3.95808 102.37062 27773 ft 495 kts 28°
2026-05-06 06:48 3.98883 102.38638 28039 ft 498 kts 28°
2026-05-06 06:49 4.01975 102.40223 28287 ft 501 kts 28°
2026-05-06 06:49 4.05079 102.41814 28510 ft 503 kts 28°
2026-05-06 06:49 4.08199 102.43413 28805 ft 503 kts 28°
2026-05-06 06:49 4.11324 102.45015 29117 ft 504 kts 28°
2026-05-06 06:50 4.14439 102.46612 29438 ft 504 kts 28°
2026-05-06 06:50 4.17523 102.48193 29721 ft 504 kts 28°
2026-05-06 06:50 4.20644 102.49794 30002 ft 505 kts 28°
2026-05-06 06:50 4.23768 102.51397 30290 ft 505 kts 28°
2026-05-06 06:51 4.26888 102.52997 30611 ft 504 kts 28°
2026-05-06 06:51 4.30014 102.54601 30868 ft 505 kts 28°
2026-05-06 06:51 4.33137 102.56203 31146 ft 504 kts 28°
2026-05-06 06:51 4.36259 102.57804 31484 ft 503 kts 28°
2026-05-06 06:52 4.39369 102.59400 31752 ft 503 kts 28°
2026-05-06 06:52 4.42485 102.61000 32069 ft 501 kts 27°
2026-05-06 06:52 4.45578 102.62587 32506 ft 498 kts 27°
2026-05-06 06:52 4.48660 102.64169 32786 ft 499 kts 27°
2026-05-06 06:53 4.51754 102.65758 32926 ft 502 kts 27°
2026-05-06 06:53 4.57972 102.68951 33005 ft 501 kts 27°
2026-05-06 06:54 4.64147 102.72079 32999 ft 500 kts 27°
2026-05-06 06:54 4.70392 102.75149 33000 ft 500 kts 26°
2026-05-06 06:55 4.76631 102.78223 33000 ft 499 kts 26°
2026-05-06 06:55 4.82857 102.81307 33000 ft 499 kts 27°
2026-05-06 06:56 4.89090 102.84402 32998 ft 500 kts 27°
2026-05-06 06:56 4.95304 102.87541 33003 ft 501 kts 27°
2026-05-06 06:57 5.01537 102.90702 33009 ft 502 kts 27°
2026-05-06 06:57 5.07766 102.93854 33017 ft 501 kts 27°
2026-05-06 06:58 5.13981 102.96996 33023 ft 500 kts 27°
2026-05-06 06:58 5.20174 103.00128 33025 ft 498 kts 27°
2026-05-06 06:59 5.26363 103.03259 33027 ft 497 kts 27°
2026-05-06 06:59 5.32526 103.06378 33028 ft 496 kts 27°
2026-05-06 07:00 5.38799 103.09252 33029 ft 496 kts 21°
2026-05-06 07:00 5.45303 103.11563 33025 ft 496 kts 20°
2026-05-06 07:01 5.51813 103.13851 33029 ft 496 kts 20°
2026-05-06 07:01 5.58276 103.16170 33028 ft 496 kts 20°
2026-05-06 07:02 5.64772 103.18517 33028 ft 497 kts 20°
2026-05-06 07:02 5.71288 103.20871 33024 ft 498 kts 20°
2026-05-06 07:03 5.77834 103.23196 33028 ft 500 kts 19°
2026-05-06 07:03 5.84495 103.25235 33033 ft 502 kts 17°
2026-05-06 07:04 5.91198 103.27200 33030 ft 503 kts 17°
2026-05-06 07:04 5.97915 103.29213 33029 ft 504 kts 17°
2026-05-06 07:05 6.04621 103.31257 33027 ft 504 kts 17°
2026-05-06 07:05 6.11323 103.33308 33027 ft 504 kts 17°
2026-05-06 07:06 6.18029 103.35358 33028 ft 503 kts 17°
2026-05-06 07:06 6.24676 103.37389 33027 ft 502 kts 17°
2026-05-06 07:07 6.31356 103.39430 33026 ft 502 kts 17°
2026-05-06 07:07 6.38038 103.41472 33032 ft 501 kts 17°
2026-05-06 07:08 6.44688 103.43505 33028 ft 500 kts 17°
2026-05-06 07:08 6.51343 103.45541 33025 ft 499 kts 17°
2026-05-06 07:09 6.57971 103.47568 33029 ft 498 kts 17°
2026-05-06 07:09 6.64597 103.49596 33028 ft 497 kts 17°
2026-05-06 07:10 6.71222 103.51624 33027 ft 497 kts 17°
2026-05-06 07:10 6.77840 103.53651 33027 ft 497 kts 17°
2026-05-06 07:11 6.84414 103.55664 33027 ft 498 kts 17°
2026-05-06 07:11 6.90927 103.57960 33018 ft 495 kts 30°
2026-05-06 07:11 6.93750 103.59931 33031 ft 494 kts 42°
2026-05-06 07:12 6.96127 103.62414 33030 ft 494 kts 53°
2026-05-06 07:12 6.99715 103.68297 33007 ft 495 kts 60°
2026-05-06 07:13 7.03189 103.74295 33006 ft 497 kts 60°
2026-05-06 07:13 7.06740 103.80278 33003 ft 498 kts 59°
2026-05-06 07:14 7.10330 103.86255 32999 ft 498 kts 59°
2026-05-06 07:14 7.13910 103.92214 33000 ft 497 kts 59°
2026-05-06 07:15 7.17474 103.98156 32999 ft 495 kts 59°
2026-05-06 07:15 7.21029 104.04090 33000 ft 494 kts 59°
2026-05-06 07:16 7.24795 104.09867 32996 ft 494 kts 51°
2026-05-06 07:16 7.29661 104.14745 33004 ft 494 kts 38°
2026-05-06 07:17 7.35262 104.18754 33007 ft 494 kts 35°
2026-05-06 07:17 7.40898 104.22644 33002 ft 494 kts 35°
2026-05-06 07:18 7.46552 104.26593 33000 ft 495 kts 35°
2026-05-06 07:18 7.52187 104.30572 33001 ft 495 kts 36°
2026-05-06 07:19 7.57819 104.34562 33000 ft 495 kts 36°
2026-05-06 07:19 7.63451 104.38552 33000 ft 495 kts 36°
2026-05-06 07:20 7.69081 104.42540 33001 ft 495 kts 36°
2026-05-06 07:20 7.74720 104.46534 32999 ft 495 kts 36°
2026-05-06 07:21 7.80354 104.50527 33003 ft 495 kts 36°
2026-05-06 07:21 7.85988 104.54521 32996 ft 495 kts 36°
2026-05-06 07:22 7.91622 104.58516 33003 ft 495 kts 36°
2026-05-06 07:22 7.97251 104.62509 33019 ft 494 kts 36°
2026-05-06 07:23 8.02872 104.66497 33028 ft 494 kts 36°
2026-05-06 07:23 8.08487 104.70483 33030 ft 493 kts 36°
2026-05-06 07:24 8.14064 104.74444 33025 ft 494 kts 36°
2026-05-06 07:24 8.19673 104.78428 33028 ft 493 kts 36°
2026-05-06 07:25 8.25288 104.82418 33029 ft 493 kts 36°
2026-05-06 07:25 8.30903 104.86410 33026 ft 493 kts 36°
2026-05-06 07:26 8.36513 104.90400 33028 ft 493 kts 36°
2026-05-06 07:26 8.42131 104.94397 33032 ft 493 kts 36°
2026-05-06 07:27 8.47743 104.98392 33028 ft 494 kts 36°
2026-05-06 07:27 8.53365 105.02378 33054 ft 494 kts 35°
2026-05-06 07:28 8.59022 105.06347 33056 ft 495 kts 35°
2026-05-06 07:28 8.67516 105.12307 33056 ft 496 kts 35°
2026-05-06 07:29 8.73182 105.16292 33055 ft 496 kts 35°
2026-05-06 07:29 8.78844 105.20277 33057 ft 496 kts 35°
2026-05-06 07:30 8.84510 105.24266 33054 ft 496 kts 35°
2026-05-06 07:30 8.90135 105.28229 33056 ft 496 kts 35°
2026-05-06 07:31 8.95798 105.32219 33054 ft 496 kts 35°
2026-05-06 07:31 9.01464 105.36212 33055 ft 496 kts 35°
2026-05-06 07:32 9.03867 105.37907 33055 ft 496 kts 36°
2026-05-06 07:32 9.09524 105.41896 33056 ft 495 kts 36°
2026-05-06 07:33 9.15148 105.45862 33032 ft 485 kts 36°
2026-05-06 07:33 9.20582 105.49698 33062 ft 472 kts 36°
2026-05-06 07:34 9.25950 105.53488 33064 ft 470 kts 36°
2026-05-06 07:34 9.31300 105.57268 33070 ft 469 kts 36°
2026-05-06 07:35 9.36652 105.61050 33068 ft 469 kts 36°
2026-05-06 07:35 9.42006 105.64835 33073 ft 470 kts 36°
2026-05-06 07:36 9.46470 105.67992 33072 ft 471 kts 36°
2026-05-06 07:36 9.51854 105.71800 33069 ft 473 kts 36°
2026-05-06 07:37 9.57251 105.75620 33064 ft 474 kts 36°
2026-05-06 07:37 9.62655 105.79446 33040 ft 474 kts 36°
2026-05-06 07:38 9.68051 105.83268 33036 ft 474 kts 36°
2026-05-06 07:38 9.70747 105.85178 32927 ft 471 kts 36°
2026-05-06 07:38 9.73423 105.87075 32463 ft 467 kts 36°
2026-05-06 07:39 9.76077 105.88956 31985 ft 463 kts 36°
2026-05-06 07:39 9.78710 105.90822 31535 ft 459 kts 36°
2026-05-06 07:39 9.81310 105.92664 31095 ft 454 kts 36°
2026-05-06 07:39 9.83888 105.94489 30632 ft 450 kts 36°
2026-05-06 07:40 9.86438 105.96295 30161 ft 446 kts 35°
2026-05-06 07:40 9.88956 105.98079 29699 ft 443 kts 35°
2026-05-06 07:40 9.91495 105.99879 29199 ft 440 kts 35°
2026-05-06 07:40 9.93994 106.01651 28709 ft 437 kts 36°
2026-05-06 07:41 9.96481 106.03414 28196 ft 435 kts 36°
2026-05-06 07:41 9.98957 106.05170 27701 ft 433 kts 36°
2026-05-06 07:41 10.01421 106.06919 27207 ft 431 kts 36°
2026-05-06 07:41 10.03867 106.08655 26730 ft 428 kts 36°
2026-05-06 07:42 10.06267 106.10358 26022 ft 414 kts 36°
2026-05-06 07:42 10.08608 106.12019 24964 ft 409 kts 36°
2026-05-06 07:42 10.10932 106.13669 23816 ft 407 kts 36°
2026-05-06 07:42 10.13248 106.15314 22675 ft 404 kts 36°
2026-05-06 07:43 10.15538 106.16941 21619 ft 400 kts 36°
2026-05-06 07:43 10.17730 106.18497 21212 ft 378 kts 36°
2026-05-06 07:43 10.19839 106.19997 20767 ft 361 kts 36°
2026-05-06 07:43 10.21849 106.21425 20367 ft 346 kts 36°
2026-05-06 07:44 10.23828 106.22832 20042 ft 351 kts 36°
2026-05-06 07:44 10.25861 106.24279 19666 ft 366 kts 36°
2026-05-06 07:44 10.27915 106.25933 19252 ft 383 kts 44°
2026-05-06 07:44 10.29781 106.27830 18829 ft 387 kts 48°
2026-05-06 07:45 10.31599 106.29840 18369 ft 386 kts 49°
2026-05-06 07:45 10.33395 106.31853 17916 ft 383 kts 49°
2026-05-06 07:45 10.35185 106.33834 17481 ft 380 kts 49°
2026-05-06 07:45 10.36983 106.35794 17052 ft 377 kts 48°
2026-05-06 07:46 10.38773 106.37722 16622 ft 374 kts 48°
2026-05-06 07:46 10.40558 106.39630 16178 ft 371 kts 47°
2026-05-06 07:46 10.42311 106.41499 15776 ft 368 kts 47°
2026-05-06 07:46 10.44070 106.43374 15353 ft 365 kts 47°
2026-05-06 07:47 10.45815 106.45230 14930 ft 362 kts 47°
2026-05-06 07:47 10.47549 106.47075 14480 ft 360 kts 47°
2026-05-06 07:47 10.49274 106.48914 14041 ft 358 kts 47°
2026-05-06 07:47 10.50803 106.50849 13611 ft 348 kts 63°
2026-05-06 07:48 10.51492 106.53156 13244 ft 340 kts 85°
2026-05-06 07:48 10.51420 106.55540 12893 ft 335 kts 96°
2026-05-06 07:48 10.51139 106.57839 12718 ft 316 kts 97°
2026-05-06 07:48 10.50858 106.59970 12390 ft 295 kts 97°
2026-05-06 07:49 10.50590 106.61990 11842 ft 285 kts 97°
2026-05-06 07:49 10.50329 106.63973 11165 ft 280 kts 97°
2026-05-06 07:49 10.50077 106.65914 10430 ft 276 kts 97°
2026-05-06 07:49 10.49830 106.67841 9668 ft 274 kts 97°
2026-05-06 07:50 10.49592 106.69727 9210 ft 259 kts 97°
2026-05-06 07:50 10.49375 106.71469 8910 ft 254 kts 97°
2026-05-06 07:50 10.49182 106.73017 8669 ft 264 kts 97°
2026-05-06 07:50 10.48948 106.74889 8371 ft 269 kts 97°
2026-05-06 07:51 10.48714 106.76759 8048 ft 263 kts 96°
2026-05-06 07:51 10.48489 106.78562 7716 ft 251 kts 97°
2026-05-06 07:51 10.48268 106.80321 7455 ft 255 kts 97°
2026-05-06 07:51 10.48044 106.82115 7195 ft 262 kts 97°
2026-05-06 07:52 10.47817 106.83943 7109 ft 255 kts 96°
2026-05-06 07:52 10.47904 106.85707 6971 ft 252 kts 68°
2026-05-06 07:52 10.48975 106.87094 6854 ft 257 kts 33°
2026-05-06 07:52 10.50691 106.87576 6733 ft 263 kts 357°
2026-05-06 07:53 10.52469 106.87156 6660 ft 263 kts 349°
2026-05-06 07:53 10.54283 106.86832 6516 ft 266 kts 356°
2026-05-06 07:53 10.56128 106.86712 6383 ft 265 kts
2026-05-06 07:53 10.57959 106.86723 6233 ft 263 kts
2026-05-06 07:54 10.59755 106.86819 6077 ft 259 kts
2026-05-06 07:54 10.61536 106.86972 5932 ft 256 kts
2026-05-06 07:54 10.63300 106.87159 5817 ft 255 kts
2026-05-06 07:54 10.65063 106.87373 5667 ft 255 kts
2026-05-06 07:55 10.66827 106.87603 5547 ft 256 kts 10°
2026-05-06 07:55 10.68588 106.87843 5410 ft 256 kts 10°
2026-05-06 07:55 10.70363 106.88089 5269 ft 258 kts 10°
2026-05-06 07:55 10.72146 106.88337 5124 ft 259 kts 11°
2026-05-06 07:56 10.73930 106.88592 4955 ft 257 kts 11°
2026-05-06 07:56 10.75687 106.88844 4848 ft 254 kts 10°
2026-05-06 07:56 10.77433 106.89095 4700 ft 253 kts 10°
2026-05-06 07:56 10.79168 106.89344 4568 ft 251 kts 11°
2026-05-06 07:57 10.80894 106.89593 4436 ft 251 kts 11°
2026-05-06 07:57 10.82617 106.89842 4282 ft 249 kts 11°
2026-05-06 07:57 10.84331 106.90066 4145 ft 246 kts
2026-05-06 07:57 10.85989 106.89663 4004 ft 254 kts 330°
2026-05-06 07:58 10.87244 106.88366 3779 ft 266 kts 296°
2026-05-06 07:58 10.87726 106.86562 3557 ft 265 kts 279°
2026-05-06 07:58 10.87995 106.84758 3336 ft 258 kts 279°
2026-05-06 07:58 10.88254 106.83036 3064 ft 234 kts 275°
2026-05-06 07:59 10.88061 106.81493 2787 ft 209 kts 254°
2026-05-06 07:59 10.87652 106.80120 2601 ft 197 kts 250°
2026-05-06 07:59 10.87194 106.78849 2480 ft 193 kts 248°
2026-05-06 07:59 10.86716 106.77567 2297 ft 194 kts 248°
2026-05-06 08:00 10.86240 106.76304 2084 ft 190 kts 247°
2026-05-06 08:00 10.85777 106.75075 1832 ft 179 kts 247°
2026-05-06 08:00 10.85352 106.73934 1595 ft 165 kts 246°
2026-05-06 08:00 10.84950 106.72876 1405 ft 159 kts 246°
2026-05-06 08:01 10.84554 106.71815 1206 ft 162 kts 245°
2026-05-06 08:01 10.84151 106.70742 960 ft 161 kts 245°
2026-05-06 08:01 10.83752 106.69690 776 ft 160 kts 245°
2026-05-06 08:01 10.83353 106.68619 538 ft 161 kts 246°
2026-05-06 08:02 10.82965 106.67580 324 ft 157 kts 248°
2026-05-06 08:02 10.82573 106.66541 139 ft 159 kts 248°
2026-05-06 08:02 10.82181 106.65525 46 ft 144 kts 246°
2026-05-06 08:02 10.81869 106.64691 38 ft 104 kts 250°
2026-05-06 08:03 10.81644 106.64344 36 ft 43 kts 202°
2026-05-06 08:03 10.81448 106.64329 37 ft 25 kts 165°
2026-05-06 08:03 10.81285 106.64390 36 ft 25 kts 146°
2026-05-06 08:03 10.81213 106.64547 37 ft 25 kts 98°
2026-05-06 08:04 10.81243 106.64719 38 ft 25 kts 71°
2026-05-06 08:04 10.81302 106.64886 39 ft 25 kts 70°
2026-05-06 08:04 10.81362 106.65052 39 ft 25 kts 70°
2026-05-06 08:04 10.81423 106.65218 39 ft 25 kts 69°
2026-05-06 08:05 10.81490 106.65379 40 ft 25 kts 66°
2026-05-06 08:05 10.81555 106.65543 39 ft 25 kts 69°
2026-05-06 08:05 10.81612 106.65697 41 ft 25 kts 69°
2026-05-06 08:05 10.81673 106.65863 42 ft 25 kts 69°
2026-05-06 08:06 10.81732 106.66026 43 ft 25 kts 70°
2026-05-06 08:06 10.81802 106.66188 43 ft 25 kts 66°
2026-05-06 08:06 10.81847 106.66289 44 ft 8 kts 65°
2026-05-06 08:06 10.81840 106.66337 44 ft 8 kts 144°
2026-05-06 08:07 10.81790 106.66358 44 ft 8 kts 161°
2026-05-06 08:07 10.81765 106.66367 44 ft 0 kts 159°
2026-05-06 08:07 10.81764 106.66368 44 ft 0 kts 159°